[TLELIST] Archives

 

[list_settings.list_name] Current TLEs

September 30th 2011 PST

HST 1 20580U 90037B 11272.81047130 .00002503 00000-0 17600-3 0 8425 2 20580 028.4712 052.9281 0003743 155.5009 204.6083 15.01558966975392 ISS (ZARYA) 1 25544U 98067A 11273.37368264 -.00006334 00000-0 -69670-4 0 1535 2 25544 051.6410 351.1988 0017169 274.5840 206.7806 15.60075712737334 CXO 1 25867U 99040B 11274.75000000 -.00000046 00000-0 00000+0 0 6488 2 25867 070.2141 024.2202 8689651 277.1412 357.0194 00.37809877 8178 ____________________________________________________________________ These 2-Line ...Continue Reading

[list_settings.list_name] Current TLEs

September 29th 2011 PST

HST 1 20580U 90037B 11271.81346906 .00002349 00000-0 16445-3 0 8410 2 20580 028.4701 059.4563 0003225 130.3425 229.7364 15.01553877975243 ISS (ZARYA) 1 25544U 98067A 11272.40797881 .00030618 00000-0 35124-3 0 1489 2 25544 051.6424 356.0575 0010189 249.1943 203.1638 15.61743940737185 CXO 1 25867U 99040B 11266.83333333 .00000286 00000-0 00000+0 0 6470 2 25867 070.1402 024.7907 8678385 277.1208 359.2007 00.37806525 8140 ____________________________________________________________________ These 2-Line ...Continue Reading

[list_settings.list_name] Current TLEs

September 27th 2011 PST

HST 1 20580U 90037B 11269.88592548 .00002235 00000-0 15589-3 0 8400 2 20580 028.4693 072.0474 0003492 119.9471 240.1442 15.01545533974956 ISS (ZARYA) 1 25544U 98067A 11270.49145693 .00051864 00000-0 59172-3 0 1366 2 25544 051.6422 005.7252 0010561 248.0157 222.3160 15.61630462736885 CXO 1 25867U 99040B 11266.83333333 .00000286 00000-0 00000+0 0 6470 2 25867 070.1402 024.7907 8678385 277.1208 359.2007 00.37806525 8140 ____________________________________________________________________ These 2-Line ...Continue Reading

[list_settings.list_name] Current TLEs

September 26th 2011 PST

HST 1 20580U 90037B 11268.55657818 .00001931 00000-0 13296-3 0 8398 2 20580 028.4704 080.7355 0003330 109.4368 250.6548 15.01540290974759 ISS (ZARYA) 1 25544U 98067A 11269.06237269 .00020133 00000-0 23525-3 0 1311 2 25544 051.6412 012.9231 0010390 235.4324 115.7017 15.61529426736655 CXO 1 25867U 99040B 11266.83333333 .00000286 00000-0 00000+0 0 6470 2 25867 070.1402 024.7907 8678385 277.1208 359.2007 00.37806525 8140 ____________________________________________________________________ These 2-Line ...Continue Reading

[list_settings.list_name] Current TLEs

September 25th 2011 PST

HST 1 20580U 90037B 11265.96433755 .00001982 00000-0 13689-3 0 8383 2 20580 028.4704 097.6677 0003333 081.8604 278.2252 15.01531383974360 ISS (ZARYA) 1 25544U 98067A 11268.18018189 .00022570 00000-0 26321-3 0 1270 2 25544 051.6403 017.3718 0010536 232.1608 196.4818 15.61497258736523 CXO 1 25867U 99040B 11266.83333333 .00000286 00000-0 00000+0 0 6470 2 25867 070.1402 024.7907 8678385 277.1208 359.2007 00.37806525 8140 ____________________________________________________________________ These 2-Line ...Continue Reading

[list_settings.list_name] Current TLEs

September 24th 2011 PST

HST 1 20580U 90037B 11265.96433755 .00001982 00000-0 13689-3 0 8383 2 20580 028.4704 097.6677 0003333 081.8604 278.2252 15.01531383974360 ISS (ZARYA) 1 25544U 98067A 11267.15491478 .00036970 00000-0 42697-3 0 1220 2 25544 051.6398 022.5411 0010522 228.2144 193.2610 15.61467951736364 CXO 1 25867U 99040B 11266.83333333 .00000286 00000-0 00000+0 0 6470 2 25867 070.1402 024.7907 8678385 277.1208 359.2007 00.37806525 8140 ____________________________________________________________________ These 2-Line ...Continue Reading

[list_settings.list_name] Current TLEs

September 22nd 2011 PST

HST 1 20580U 90037B 11263.03974435 +.00002083 +00000-0 +14457-3 0 08370 2 20580 028.4748 116.7741 0003186 053.9835 306.1222 15.01521643973922 ISS (ZARYA) 1 25544U 98067A 11265.36960963 .00015192 00000-0 18013-3 0 1139 2 25544 051.6404 031.5379 0010953 222.3281 237.0836 15.61376678736081 CXO 1 25867U 99040B 11266.83333333 .00000286 00000-0 00000+0 0 6470 2 25867 070.1402 024.7907 8678385 277.1208 359.2007 00.37806525 8140 ____________________________________________________________________ These 2-Line ...Continue Reading

[list_settings.list_name] Current TLEs

September 21st 2011 PST

HST 1 20580U 90037B 11261.04568519 .00001651 00000-0 11198-3 0 8369 2 20580 028.4744 129.8053 0002854 036.1591 323.9187 15.01512658973622 ISS (ZARYA) 1 25544U 98067A 11264.40108627 .00006293 00000-0 78436-4 0 1064 2 25544 051.6396 036.4203 0010927 218.4797 193.3293 15.61333018735935 CXO 1 25867U 99040B 11264.16666667 .00000101 00000-0 00000+0 0 6468 2 25867 070.1103 025.0557 8676216 277.0876 356.1273 00.37803083 8130 ____________________________________________________________________ These 2-Line ...Continue Reading

[list_settings.list_name] Current TLEs

September 20th 2011 PST

HST 1 20580U 90037B 11261.04568519 .00001651 00000-0 11198-3 0 8369 2 20580 028.4744 129.8053 0002854 036.1591 323.9187 15.01512658973622 ISS (ZARYA) 1 25544U 98067A 11263.37561133 .00020060 00000-0 23631-3 0 1002 2 25544 051.6406 041.5861 0011035 213.7567 190.2634 15.61312848735773 CXO 1 25867U 99040B 11264.16666667 .00000101 00000-0 00000+0 0 6468 2 25867 070.1103 025.0557 8676216 277.0876 356.1273 00.37803083 8130 ____________________________________________________________________ These 2-Line ...Continue Reading

[list_settings.list_name] Current TLEs

September 19th 2011 PST

HST 1 20580U 90037B 11261.04568519 .00001651 00000-0 11198-3 0 8369 2 20580 028.4744 129.8053 0002854 036.1591 323.9187 15.01512658973622 ISS (ZARYA) 1 25544U 98067A 11262.42784589 .00012060 00000-0 14491-3 0 935 2 25544 051.6424 046.3642 0010617 212.0972 261.3054 15.61271842735628 CXO 1 25867U 99040B 11264.16666667 .00000101 00000-0 00000+0 0 6468 2 25867 070.1103 025.0557 8676216 277.0876 356.1273 00.37803083 8130 ____________________________________________________________________ These 2-Line ...Continue Reading
  • This mailing list is a public mailing list - anyone may join or leave, at any time.
  • This mailing list is announce-only.

International Space Station (ISS) / Hubble Space Telescope (HST) / Chandra X-Ray Observatory Orbital Data via EMAIL

Privacy Policy:

Private list